Regional Weather Roundup
Issued by NWS Upton, NY

Current Version | Previous Version | Text Only | Print | Product List | Glossary On
Versions: 1 2 3 4 5 6 7 8 9 10 11 12 13 14 15 16 17 18 19 20 21 22 23 24 25 26 27 28 29 30 31 32 33 34 35 36 37 38 39 40 41 42 43 44 45 46 47 48 49 50
000
ASUS41 KOKX 241508
RWROKX

REGIONAL WEATHER ROUNDUP
NATIONAL WEATHER SERVICE NEW YORK NY
1000 AM EST TUE JAN 24 2017

NOTE: "FAIR" INDICATES FEW OR NO CLOUDS BELOW 12,000 FEET WITH NO
SIGNIFICANT WEATHER AND/OR OBSTRUCTIONS TO VISIBILITY.

NYZ071-072-176-178-NJZ106-104-241600-
NEW YORK CITY METRO AREA

CITY           SKY/WX    TMP DP  RH WIND       PRES   REMARKS
Central Park   MIX PCPN  36  35  96 NE10G21   29.38S FOG     WCI  28
Wall St Helipt CLOUDY    39  37  92 VRB7G17   29.36S WCI  34
LaGuardia APRT LGT RAIN  39  35  86 N20G25    29.35S FOG     WCI  29
Kennedy INTL   LGT RAIN  38  36  92 N22G31    29.34S WCI  27
Breezy Point     N/A     37 N/A N/A N18G29      N/A  WCI  27
Newark/Liberty DRIZZLE   38  35  89 N20       29.37S WCI  28
Teterboro      CLOUDY    36  34  93 N5G26     29.38S FOG     WCI  32
$$

NYZ177-179-078>081-241600-
LONG ISLAND NEW YORK

CITY           SKY/WX    TMP DP  RH WIND       PRES   REMARKS
Jones Beach      N/A     37 N/A N/A N25G33      N/A  WCI  26
Matinecock PT  NOT AVBL
Farmingdale    LGT RAIN  39  37  92 NE20G33   29.31S FOG     WCI  29
MacArthur/ISP  LGT RAIN  40  39  97 N14G31    29.30R FOG     WCI  32
Shirley        LGT RAIN  40  40 100 N17G26    29.29R FOG     WCI  31
Westhampton    LGT RAIN  42  39  89 N24G33    29.28S FOG
Southampton    NOT AVBL
Bridgehampton  NOT AVBL
East Hampton   LGT RAIN  42  40  93 N20G28    29.28S
Montauk        NOT AVBL
$$

NYZ052-065-067-241600-
HUDSON VALLEY

CITY           SKY/WX    TMP DP  RH WIND       PRES   REMARKS
White Plains   LGT RAIN  36  33  89 N14G25    29.35S FOG     WCI  27
Newburgh       NOT AVBL
Montgomery     LGT RAIN  35  32  88 N16       29.43S WCI  25
Poughkeepsie   CLOUDY    33  32  96 N10       29.45R FOG     WCI  25
Albany         FLURRIES  33  30  88 N9        29.55S WCI  25
$$

NJZ001-105-106-008-010-013-015-019>022-104-241600-
NEW JERSEY

CITY           SKY/WX    TMP DP  RH WIND       PRES   REMARKS
Newark/Liberty DRIZZLE   38  35  89 N20       29.37S WCI  28
Teterboro      CLOUDY    36  34  93 N5G26     29.38S FOG     WCI  32
Caldwell       CLOUDY    36  33  89 VRB7      29.40R WCI  30
Somerville     CLOUDY    37  32  82 N10       29.39R WCI  30
Linden         NOT AVBL
Sussex         CLOUDY    35  33  92 N8        29.43S FOG     WCI  29
Andover          N/A     34  32  92 N8        29.43R WCI  27
Trenton        LGT SNOW  37  35  92 N15       29.39S FOG     WCI  28
Millville      LGT RAIN  38  37  97 N14G23    29.40R WCI  30
Atlantic City  LGT SNOW  37  35  92 NW18G28   29.36R VSB 1   WCI  27
Wrightstown    NOT AVBL
Toms River     LGT RAIN  37  36  96 NW13      29.36R FOG     WCI  29
Belmar         LGT RAIN  36  35  96 NW17      29.35R FOG     WCI  26
$$

PAZ047>061-062-071-241600-
EASTERN PENNSYLVANIA

CITY           SKY/WX    TMP DP  RH WIND       PRES   REMARKS
Philadelphia   LGT RAIN  39  35  86 N15G25    29.43S WCI  31
Allentown      CLOUDY    40  33  76 NW12      29.46R WCI  33
Scranton       CLOUDY    36  31  82 N10       29.49R WCI  28
$$

CTZ002-004>006-009-010-012-RIZ004-006-007-MAZ004-011-015-241600-
SOUTHERN NEW ENGLAND
 IN CT

CITY           SKY/WX    TMP DP  RH WIND       PRES   REMARKS
Bradley INTL   LGT RAIN  36  29  75 N21G32    29.45F WCI  25
Hartford       MIX PCPN  35  31  85 N16G22    29.43S FOG     WCI  25
Danbury        CLOUDY    36  30  79 NE12G22   29.39S WCI  28
Wtrbury/Oxford LGT RAIN  36  27  69 NE24G39   29.34R WCI  24
Bridgeport     LGT RAIN  40  34  79 N18G30    29.34F WCI  31
Meriden        LGT RAIN  36  31  82 N14G24    29.39S WCI  27
New Haven      LGT RAIN  37  34  89 N25G37    29.32S FOG     WCI  25
Chester        CLOUDY    39  37  93 NE18G29   29.34R WCI  30
Groton         CLOUDY    44  39  82 N20G39    29.30R
Wilimantic     CLOUDY    41  36  82 N17G28    29.40S

 IN RI

CITY           SKY/WX    TMP DP  RH WIND       PRES   REMARKS
Providence     LGT RAIN  43  39  86 N25G35    29.38F FOG
Block Island   NOT AVBL
Westerly       CLOUDY    44  38  79 N17G31    29.32R
 IN MA

CITY           SKY/WX    TMP DP  RH WIND       PRES   REMARKS
Boston         LGT RAIN  41  40  96 N26G37    29.46F FOG
Worcester      LGT SNOW  29  28  96 NE17G31   29.43F FOG     WCI  17
Westfield      CLOUDY    35  29  78 N10G23    29.48S WCI  27
Provincetown   LGT RAIN  46  45  96 NE16      29.35F FOG
Nantucket      CLOUDY    54  52  93 E15       29.26F FOG
$$

ANZ330-335-338-340-345-350-353-355-241600-
COASTAL MARINE OBSERVATIONS


STATION/POSITION TIME  SKY/WX   TEMP    WIND        PRES    VSBY  WAVE
                                AIR SEA DIR/SP/G                  HT/PER
                 (UTC)          (F)     (DEG/KT/KT) (MB)    (MI)  (FT/S)
NY HARB ENTRANCE 1350            40 43  360/ 23/ 29  991.3         11/12
20 S FIRE ISLAND 1350            43 46   30/ 29/ 35  988.7         14/11
GREAT SOUTH BAY  NOT AVBL
23 SSW MONTAUK P 1350            44 47   30/ 31/ 39  989.5         13/11
15 E BARNEGAT LI 1430               45                N/A          12/11
HUDSON CANYON    1350            50 51               985.8         16/12
KINGS POINT      1436               39                N/A
EXECUTION ROCKS  1445            37      10/ 16/ 19   N/A
CENTRAL LI SOUND 1415            41      40/ 23/ 29   N/A           5/ 5
EASTERN LI SOUND NOT AVBL
ROBBINS REEF     1448                   360/ 19/ 25  994.1
$$


>>>>>>>>>>>>>>>>>>>>>>>>>>>> KEY <<<<<<<<<<<<<<<<<<<<<<<<<<<
>                                                          <
>     SKY/WX - Sky Condition/Present Weather               <
>     TMP    - Temperature in Fahrenheit                   <
>     DP     - Dew Point in Fahrenheit                     <
>     RH     - Relative Humidity in Percent                <
>     WIND   - Direction (from) and Speed in MPH           <
>     PRES   - Mean Sea Level Pressure (inches of Hg)      <
>     WCI    - Wind Chill Index                            <
>     VSB    - VISIBILITY IN MILES                         <
>     HX     - HEAT INDEX                                  <
>     TC     - TEMPERATURE IN CELSIUS                      <
>     VRB    - VARIABLE WIND DIRECTION                     <
>                                                          <
>>>>>>>>>>>>>>>>>>>>>>>>>>>> KEY <<<<<<<<<<<<<<<<<<<<<<<<<<<



USA.gov is the U.S. government's official web portal to all federal, state and local government web resources and services.